Regional Weather Roundup
Issued by NWS

Home | Current Version | Previous Version | Graphics & Text | Print | Product List | Glossary On
Versions: 1 2 3 4 5 6 7 8 9 10 11 12 13 14 15 16 17 18 19 20 21 22 23 24 25 26 27 28 29 30 31 32 33 34 35 36 37 38 39 40 41 42 43 44 45 46 47 48 49 50
348
ASUS45 KBOU 082007
RWRCO

WEATHER ROUNDUP FOR COLORADO
NATIONAL WEATHER SERVICE DENVER/BOULDER CO
100 PM MST THU DEC 08 2016

NOTE: "FAIR" INDICATES FEW OR NO CLOUDS BELOW 12000 FEET WITH NO
SIGNIFICANT WEATHER AND/OR OBSTRUCTIONS TO VISIBILITY.

COZ001>005-013-030-031-082100-
...NORTHWEST COLORADO...

CITY           SKY/WX    TMP DP  RH WIND       PRES   REMARKS
CRAIG          CLOUDY    18   3  52 NE9       30.23F WCI   7
HAYDEN         CLOUDY    14   0  52 SE6       30.22F WCI   5
MEEKER         CLOUDY    19   7  59 CALM      30.21F
MOUNT WERNER   NOT AVBL
STEAMBOAT SPGS CLOUDY    10  -2  58 CALM      30.21F
WALDEN           N/A      3  -2  78 NW3       30.14F
$$

COZ006>008-011-082100-
...WEST CENTRAL VALLEYS...

CITY           SKY/WX    TMP DP  RH WIND       PRES   REMARKS
GRAND JUNCTION CLOUDY    28   6  39 VRB5      30.31F WCI  23
MONTROSE       CLOUDY    27   6  41 CALM      30.30F
EAGLE          PTSUNNY   19   0  42 CALM      30.29F
RIFLE          CLOUDY    22   4  46 E3        30.28F
DELTA          CLOUDY    30   4  33 CALM      30.31F
NUCLA          CLOUDY    32   1  27 CALM      30.31F
$$

COZ017>023-064>068-082100-
...SOUTHWEST COLORADO...

CITY           SKY/WX    TMP DP  RH WIND       PRES   REMARKS
DURANGO        FAIR      34   0  23 N6        30.28F WCI  29
CORTEZ         CLOUDY    37   9  31 SW9       30.28F
PAGOSA SPRINGS FAIR      31   0  27 S7        30.27F WCI  24
TELLURIDE      CLOUDY    29   3  32 CALM      30.22S
WOLF CREEK PAS FAIR      12  -4  48 SW16G22   30.21F WCI  -4
$$

COZ009-010-012-014-032>034-037-058>063-082100-
...CENTRAL COLORADO...

CITY           SKY/WX    TMP DP  RH WIND       PRES   REMARKS
ASPEN          NOT AVBL
BUENA VISTA    CLOUDY    26  -3  27 SE6       30.13F WCI  20
COPPER MTN     CLOUDY    14   3  62 MISG      30.05S HAZE
BERTHOUD PASS  CLOUDY     3  -9  55 W21G29    29.99F WCI -18
COTTONWOOD PAS FAIR      25  -6  26 W8        30.08F WCI  16
GUNNISON       CLOUDY    16   0  49 CALM      30.27F
KREMMLING      CLOUDY    10   1  67 CALM      30.25F
LEADVILLE      CLOUDY    18   5  57 N13       30.07F WCI   5
MONARCH PASS   CLOUDY     9  -8  47 W39       30.19F WCI -17
SALIDA         CLOUDY    23   4  43 CALM      30.23F
SUNLIGHT       CLOUDY    12   7  79 SW13G24   30.14F WCI  -3
WILKERSON PASS FAIR      14   1  57 SW18G28   30.05F WCI  -3
$$

COZ069>075-082100-
...SAN LUIS VALLEY/SANGRE DE CRISTO MOUNTAINS...

CITY           SKY/WX    TMP DP  RH WIND       PRES   REMARKS
ALAMOSA        FAIR      23   6  48 VRB5      30.24F WCI  17
LA VETA PASS   FAIR      21  10  63 NE23G39   30.11F WCI   5
SAGUACHE       CLOUDY    27   0  31 S3        30.22F
$$

COZ035-036-038>040-082100-
...NORTHERN COLORADO FRONT RANGE...

CITY           SKY/WX    TMP DP  RH WIND       PRES   REMARKS
DENVER INTL AP FAIR      17   6  62 CALM      30.30F
DMNS CITY PARK   N/A     19   4  54 E3        30.30F
AURORA         MOSUNNY   16   6  64 NE3       30.29F
FRONT RANGE AP MOSUNNY   18   9  68 N5        30.30F WCI  11
ERIE MUNI ARPT FAIR      11   9  89 NE3       30.34F
BOULDER MUN AP FAIR      14   5  67 CALM      30.31F
CENTENNIAL     FAIR      18   6  59 NE7       30.26F WCI   9
BROOMFIELD     PTSUNNY   14   7  73 N6        30.29F WCI   5
FORT COLLINS   FAIR      12   3  67 SE5       30.35F WCI   4
LONGMONT       NOT AVBL
$$

COZ041-046-047-076>085-087-088-082100-
...PIKES PEAK/PALMER DIVIDE AND SOUTHERN FOOTHILLS...

CITY           SKY/WX    TMP DP  RH WIND       PRES   REMARKS
COLO. SPRINGS  LGT SNOW  12   7  80 S14       30.30F VSB 3/4 WCI  -3
A. F. ACADEMY  CLOUDY    11   3  70 S12       30.24F WCI  -3
SCHRIEVER AFB  NOT AVBL
ELLICOTT       LGT RAIN N/A N/A N/A S14         N/A
FALCON         LGT SNOW  11   4  74 S14       30.25F WCI  -5
FORT CARSON    LGT SNOW  13   7  76 S9        30.30F WCI   1
LIMON          FAIR      17   8  67 S12       30.34F WCI   4
MONUMENT HILL  FAIR      12   3  67 S16G25    30.20F WCI  -4
TRINIDAD       FAIR      23   7  50 NE5       30.31F WCI  17
$$

COZ042>045-048>051-090-091-082100-
...NORTHEAST COLORADO...

CITY           SKY/WX    TMP DP  RH WIND       PRES   REMARKS
GREELEY ARPT   FAIR      15   2  56 SE7       30.39F WCI   5
AKRON          FAIR      14   2  58 SE13      30.40F WCI   0
BURLINGTON     FAIR      19   2  47 CALM      30.46F
WRAY           FAIR      19   3  49 CALM      30.51F
STERLING       FAIR      12   1  62 CALM      30.45F
HOLYOKE        FAIR      21   3  45 N3        30.49F
FORT MORGAN    FAIR      13   1  58 E8        30.41F WCI   1
$$

COZ086-089-092>099-082100-
...SOUTHEAST COLORADO...

CITY           SKY/WX    TMP DP  RH WIND       PRES   REMARKS
PUEBLO         CLOUDY    20   8  60 S9        30.39F WCI   9
LA JUNTA       FAIR      25   2  37 E13       30.42F WCI  14
LAMAR          FAIR      22   1  40 SE7       30.48F WCI  13
SPRINGFIELD    NOT AVBL
$$




USA.gov is the U.S. government's official web portal to all federal, state and local government web resources and services.